Location: Pontbriand
(46.1542°N, 71.2542°W)
Time: 16:17:47
(UTC+00:00)

Envisat - Pass Details

Date: 08 October 2022
Orbit: 763 x 765 km, 98.2° (Epoch: 30 November)

Event Time Altitude Azimuth Distance (km) Brightness Sun altitude
Rises 07:33:17 0° 34° (NNE) 3,242 7.1 -34.1°
Reaches altitude 10° 07:37:24 10° 66° (ENE) 2,308 6.3 -33.5°
Maximum altitude 07:39:06 12° 86° (E) 2,194 6.0 -33.2°
Drops below altitude 10° 07:40:49 10° 106° (ESE) 2,302 5.9 -32.9°
Sets 07:44:53 0° 139° (SE) 3,220 6.4 -32.3°
